{"data":{"norad_id":52463,"epoch":"2026-09-19T16:33:03.751200Z","epoch_age_seconds":133265,"freshness":"FRESH","line1":"1 52463U 22049N   26262.68962675  .00000496  00000+0  25132-4 0  9999","line2":"2 52463  53.1607 247.7826 0001309  92.0797 268.0356 15.35395799241819","mean_motion":15.35395799,"eccentricity":0.0001309,"inclination_deg":53.1607,"raan_deg":247.7826,"arg_perigee_deg":92.0797,"mean_anomaly_deg":268.0356,"bstar":2.5132e-5,"rev_number":24181,"period_min":93.786892014285,"perigee_km":458.85003670713,"apogee_km":460.64019424496,"semimajor_km":6837.882115476,"source":"CELESTRAK","updated_at":"2026-09-20T09:00:40.033744Z"}}